Погода в Сан-Диего

США     32°42′56″N   117°09′16″W
темп.,
°C
ветер,
м/с
пор.,
м/с
влажн.,
%
обл.,
%
осадки,
мм/ч
давл.,
гПа
погр.,
м
19 апреля, пн
пн1923:00+19ссз34570 0.0 1016135
02:00+17сз23710 0.0 101565
05:00+17ссв11620 0.0 101511
08:00+18ссз11580 0.0 101640
11:00+21зсз32470 0.0 1016268
14:00+20з44520 0.0 1015293
17:00+19зсз45620 0.0 1014275
20:00+17з22730 0.0 1014176
20 апреля, вт
вт2023:00+16зюз22760 0.0 1014195
02:00+16зюз22780 0.0 1014226
05:00+15зюз22800 0.0 1013301
08:00+15ююз33794 0.0 1014411
11:00+16ююз557312 0.0 1014463
14:00+16юз667214 0.0 1013538
17:00+15ююз567658 0.0 1012634
20:00+15ююз557699 0.1 1012778
21 апреля, ср
ср2123:00+15ююз5573100 0.3 1013881
02:00+14ююз5673100 0.3 1013964
05:00+14зюз4471100 0.5 1012887
08:00+14юз4472100 0.3 1014756
11:00+14юз5575100 0.4 1015827
14:00+15юз557285 0.2 1014877
17:00+15зюз4472100 0.3 1013921
20:00+14зюз3375100 0.2 1013494
22 апреля, чт
чт2223:00+14зюз3376100 0.4 1014443
02:00+14з3378100 0.3 1013456
05:00+14зюз3377100 0.4 1012479
08:00+14юз227595 0.2 1014450
11:00+15юз4367100 0.3 1015835
14:00+16зюз436642 0.0 1014837
17:00+15з437132 0.0 1013769
20:00+15зсз437455 0.0 1014736
23 апреля, пт
пт2323:00+15зсз2270100 0.0 1015678
02:00+15з3270100 0.1 1015732
05:00+14з2173100 0.1 1015311
08:00+15з216969 0.1 1016361
11:00+16з43669 0.1 1016679
14:00+16з546823 0.0 1016649
17:00+16з437092 0.0 1016590
20:00+15зсз337436 0.0 1017603